Flag for Romania Weather past 2 weeks in Târgu Mureş, Romania

Now
45 °F

Light rain. Overcast.


Feels Like: 42 °F
Forecast: 38 / 61 °F
Wind: 5 mph from Northeast

Location: Tirgu Mures Airport


UV Index: 0 (Low)

Visibility: N/A


Pressure: 29.98 "Hg

Humidity: 93%

Dew point: 43 °F

Location of Târgu MureşLocation

Historic Weather in Târgu Mureş

°F

Târgu Mureş temperature yesterday

Maximum temperature yesterday: 54 °F (at 5:00 PM)
Minimum temperature yesterday: 43 °F (at 8:30 PM)
Average temperature yesterday: 47 °F

Past Weeks' High & Low Weather Summary

 TemperatureHumidityPressure
High70 °F (Apr 3, 5:00 PM)100% (Apr 8, 5:00 AM)30.12 "Hg (Apr 8, 5:00 AM)
Low34 °F (Apr 3, 7:00 AM)30% (Apr 3, 5:30 PM)29.77 "Hg (Apr 14, 7:00 PM)
Average50 °F73%29.95 "Hg
* Reported Apr 1 9:00 PM — Apr 16 9:00 PM, Târgu Mureş, Weather by CustomWeather, © 2014

Note: Actual official high and low records may vary slightly from our data, if they occured in-between our weather recording intervals... More about our weather records

Advertising

Historic Weather Conditions — Data for Previous 24 hours

 ConditionsComfort  
Time TempWeatherWind HumidityBarometerVisibility
9:00 PM
Apr 16
45 °FLight rain. Mostly cloudy.5 mph93%29.98 "HgN/A
8:30 PM46 °FLight rain. Cloudy.5 mph93%29.98 "HgN/A
8:00 PM48 °FLight rain. Partly sunny.5 mph87%29.98 "HgN/A
7:30 PM48 °FLight rain. More clouds than sun.2 mph76%29.95 "HgN/A
7:00 PM50 °FLight rain. Broken clouds.No wind67%29.95 "HgN/A
6:30 PM50 °FLight rain. Broken clouds.No wind62%29.95 "HgN/A
6:00 PM50 °FLight rain. Cloudy.5 mph71%29.95 "HgN/A
5:30 PM50 °FLight rain. Partly sunny.2 mph71%29.95 "HgN/A
5:00 PM50 °FPartly sunny.5 mph71%29.95 "HgN/A
4:30 PM52 °FPartly sunny.No wind67%29.95 "HgN/A
4:00 PM52 °FPartly sunny.No wind72%29.95 "HgN/A
3:30 PM50 °FLight rain. Broken clouds.No wind76%29.95 "HgN/A
3:00 PM50 °FLight rain. Broken clouds.2 mph71%29.98 "HgN/A
2:30 PM50 °FBroken clouds.5 mph76%29.98 "HgN/A
2:00 PM50 °FBroken clouds.2 mph71%29.98 "HgN/A
1:30 PM48 °FLight rain. Broken clouds.2 mph82%29.98 "HgN/A
1:00 PM48 °FLight rain. Broken clouds.7 mph76%29.98 "HgN/A
12:30 PM48 °FLight rain. Broken clouds.5 mph76%30.01 "HgN/A
12:00 PM46 °FLight rain. Broken clouds.7 mph82%30.01 "HgN/A
11:30 AM46 °FLight rain. Broken clouds.7 mph87%30.01 "HgN/A
11:00 AM46 °FLight rain. Broken clouds.2 mph93%30.01 "HgN/A
10:30 AM45 °FLight rain. Broken clouds.5 mph93%30.01 "HgN/A
10:00 AM43 °FLight rain. Partly sunny.5 mph93%29.98 "HgN/A
9:30 AM43 °FLight rain. Partly sunny.5 mph93%29.98 "HgN/A
9:00 AM43 °FLight rain. Partly sunny.2 mph93%29.98 "HgN/A
8:30 AM43 °FLight rain. Partly sunny.2 mph93%29.98 "HgN/A
8:00 AM41 °FLight rain. Broken clouds.2 mph100%29.98 "HgN/A
7:30 AM41 °FLight rain. Partly cloudy.2 mph100%29.95 "HgN/A
7:00 AM41 °FLight rain. Mostly cloudy.2 mph100%29.95 "HgN/A
6:30 AM41 °FLight rain. Partly cloudy.2 mph93%29.95 "HgN/A
6:00 AM41 °FLight rain. Fog.2 mph100%29.92 "Hg3 mi
5:30 AM41 °FLight rain. Partly cloudy.2 mph100%29.92 "Hg4 mi
5:00 AM41 °FLight rain. Mostly cloudy.No wind100%29.92 "Hg4 mi
4:00 AM41 °FLight rain. Mostly cloudy.2 mph100%29.92 "Hg5 mi
2:00 AM43 °FLight rain. Overcast.No wind100%29.95 "Hg5 mi
1:00 AM43 °FLight rain. Mostly cloudy.2 mph100%29.95 "HgN/A
12:00 AM43 °FLight rain. Mostly cloudy.2 mph100%29.92 "HgN/A
11:00 PM
Apr 15
43 °FLight rain. Mostly cloudy.5 mph100%29.92 "HgN/A
10:00 PM45 °FPassing clouds.7 mph100%29.92 "HgN/A
Weather by CustomWeather, © 2014

See weather overview